Temperature
-3 -3 -3 -4 -4 -5 -5 -4 -4 -4 -5 -4 -5 -6 -6 -6 -6 -6 -6 -6 -6 -6 -6 -6 -6 -7 -7 -7 -7 -7 -6 -6 -6 -6 -6 -6 -6 -6 -6 -6 -6 -6 -5 -5
-4 -3 -4 -4 -4 -5 -5 -6 -6 -5 -5 -6 -6 -6 -7 -7 -7 -7 -7 -7 -7 -7 -7 -7 -7 -7 -7 -7 -7 -7 -7 -7 -7 -7 -7 -7 -7 -7 -7 -7 -7 -6 -6 -6
-4 -4 -4 -4 -5 -6 -6 -7 -7 -6 -6 -7 -8 -8 -7 -7 -7 -7 -7 -7 -7 -8 -8 -8 -8 -8 -8 -8 -8 -8 -8 -8 -8 -7 -7 -8 -8 -8 -7 -7 -7 -7 -7 -7
-5 -5 -3 -3 -6 -6 -6 -7 -8 -8 -8 -8 -8 -7 -7 -7 -7 -7 -7 -8 -8 -8 -8 -8 -8 -8 -9 -9 -9 -8 -8 -8 -8 -8 -8 -8 -8 -8 -8 -8 -8 -8 -8 -7
-5 -5 -5 -4 -6 -8 -7 -7 -9 -9 -9 -8 -8 -8 -8 -7 -7 -7 -8 -8 -8 -8 -8 -9 -9 -9 -9 -9 -9 -9 -9 -9 -9 -9 -9 -9 -9 -9 -9 -9 -9 -9 -8 -8
-6 -5 -4 -4 -7 -8 -7 -6 -8 -9 -9 -9 -9 -9 -8 -7 -8 -8 -8 -9 -9 -9 -9 -9 -9 -9 -10 -9 -10 -9 -9 -9 -9 -9 -9 -9 -9 -9 -9 -9 -9 -9 -9 -9
-6 -6 -5 -7 -8 -8 -5 -5 -7 -8 -8 -9 -10 -9 -8 -8 -8 -9 -9 -9 -9 -9 -9 -10 -10 -10 -10 -10 -10 -10 -10 -10 -10 -10 -10 -10 -10 -10 -10 -10 -10 -10 -9 -9
-7 -6 -5 -9 -9 -8 -7 -7 -7 -7 -8 -8 -8 -9 -9 -9 -9 -9 -9 -9 -10 -10 -10 -10 -10 -10 -10 -10 -10 -11 -11 -11 -10 -10 -10 -10 -10 -10 -10 -10 -10 -10 -10 -10
-7 -6 -8 -8 -8 -7 -7 -7 -7 -8 -8 -8 -9 -9 -9 -9 -9 -10 -10 -10 -10 -10 -10 -11 -11 -11 -11 -11 -11 -11 -11 -11 -11 -11 -11 -11 -11 -11 -11 -11 -11 -11 -11 -10
-9 -9 -9 -8 -7 -7 -7 -7 -8 -8 -8 -9 -9 -9 -10 -10 -10 -10 -10 -10 -10 -11 -11 -11 -11 -11 -11 -11 -11 -11 -11 -11 -11 -11 -11 -11 -11 -11 -11 -11 -11 -11 -11 -11
-9 -10 -9 -9 -8 -8 -8 -8 -8 -8 -9 -9 -9 -9 -10 -10 -10 -10 -10 -11 -11 -11 -11 -11 -11 -11 -11 -12 -12 -12 -12 -12 -12 -12 -12 -12 -12 -12 -12 -12 -12 -12 -12 -12
-8 -8 -9 -8 -7 -7 -8 -8 -8 -9 -9 -9 -10 -10 -10 -10 -10 -11 -11 -11 -11 -11 -11 -11 -11 -11 -12 -12 -12 -12 -12 -12 -12 -12 -12 -12 -12 -12 -12 -12 -12 -12 -12 -12
-7 -7 -7 -8 -8 -8 -8 -9 -9 -9 -9 -10 -10 -10 -10 -11 -11 -11 -11 -11 -11 -11 -11 -12 -12 -12 -12 -12 -12 -12 -12 -12 -12 -12 -12 -12 -12 -13 -12 -12 -12 -12 -12 -12
-7 -8 -9 -8 -8 -9 -9 -9 -9 -10 -10 -10 -10 -11 -11 -11 -11 -11 -11 -11 -12 -12 -12 -12 -12 -12 -12 -12 -12 -12 -12 -12 -13 -13 -13 -13 -13 -13 -13 -13 -13 -12 -12 -12
-8 -8 -8 -9 -9 -9 -9 -10 -10 -10 -10 -10 -11 -11 -11 -11 -11 -11 -11 -12 -12 -12 -12 -12 -12 -12 -12 -12 -13 -13 -13 -13 -13 -13 -13 -13 -13 -13 -13 -13 -13 -13 -13 -13
-9 -9 -9 -9 -9 -10 -10 -10 -10 -10 -11 -11 -11 -11 -11 -12 -12 -12 -12 -12 -12 -12 -12 -12 -12 -12 -13 -13 -13 -13 -13 -13 -13 -13 -13 -14 -14 -14 -14 -14 -14 -13 -13 -13
-9 -9 -10 -10 -10 -10 -10 -10 -10 -11 -11 -11 -11 -12 -12 -12 -12 -12 -12 -12 -12 -12 -12 -12 -13 -13 -13 -13 -13 -13 -13 -13 -13 -14 -14 -14 -14 -14 -14 -14 -14 -14 -14 -14
-8 -9 -9 -9 -9 -10 -10 -10 -11 -11 -11 -11 -12 -12 -12 -12 -12 -12 -12 -13 -12 -12 -13 -13 -13 -13 -13 -13 -13 -13 -13 -14 -14 -14 -14 -14 -14 -14 -14 -14 -14 -14 -14 -14
-9 -9 -9 -10 -10 -10 -10 -10 -11 -11 -11 -12 -12 -12 -12 -13 -13 -13 -13 -13 -13 -13 -13 -13 -13 -13 -13 -14 -14 -14 -14 -14 -14 -14 -14 -14 -14 -14 -14 -14 -14 -14 -14 -14
-9 -9 -10 -10 -10 -10 -11 -11 -11 -11 -12 -12 -12 -12 -13 -13 -13 -13 -13 -13 -13 -13 -13 -13 -14 -14 -14 -14 -14 -14 -14 -14 -14 -14 -14 -14 -14 -14 -14 -14 -14 -14 -14 -14
-10 -10 -10 -10 -10 -11 -11 -11 -11 -12 -12 -12 -12 -13 -13 -13 -13 -13 -13 -13 -13 -14 -14 -14 -14 -14 -14 -14 -14 -14 -14 -14 -14 -15 -15 -15 -15 -15 -15 -14 -15 -15 -15 -15
-10 -10 -10 -11 -11 -11 -11 -12 -12 -12 -12 -13 -13 -13 -13 -13 -13 -13 -14 -14 -14 -14 -14 -14 -14 -14 -14 -15 -15 -15 -15 -15 -15 -15 -15 -15 -15 -15 -15 -15 -15 -15 -15 -15
-10 -11 -11 -11 -11 -11 -11 -12 -12 -12 -13 -13 -13 -13 -14 -14 -14 -14 -14 -14 -14 -14 -15 -14 -14 -15 -15 -15 -15 -15 -15 -15 -15 -15 -15 -15 -15 -15 -15 -15 -15 -15 -15 -15
-11 -11 -11 -11 -12 -12 -12 -12 -12 -13 -13 -13 -14 -14 -14 -14 -14 -14 -14 -14 -14 -15 -15 -15 -15 -15 -15 -15 -15 -15 -15 -15 -15 -16 -16 -15 -16 -16 -16 -16 -16 -15 -15 -15
-11 -12 -12 -12 -12 -12 -12 -13 -13 -13 -13 -14 -14 -14 -14 -14 -15 -15 -15 -15 -15 -15 -15 -15 -15 -15 -15 -15 -15 -16 -16 -16 -16 -16 -16 -16 -16 -16 -16 -16 -16 -16 -16 -15
-12 -12 -12 -13 -13 -13 -13 -13 -14 -14 -14 -14 -14 -14 -14 -15 -15 -15 -15 -15 -15 -15 -15 -15 -16 -16 -16 -16 -16 -16 -16 -16 -16 -16 -16 -16 -16 -16 -16 -16 -16 -16 -16 -16
-12 -13 -13 -13 -13 -14 -14 -14 -14 -14 -14 -15 -15 -15 -15 -15 -15 -15 -15 -15 -15 -16 -16 -16 -16 -16 -16 -16 -16 -16 -16 -16 -16 -16 -16 -16 -16 -16 -16 -16 -16 -16 -16 -16
Wind_Speed
5 3 3 5 6 6 8 8 9 8 8 10 6 5 5 3 3 4 4 4 3 3 4 4 3 3 4 4 5 5 5 5 4 5 5 5 5 6 6 6 7 7 7 7
3 2 3 5 7 7 8 7 8 7 10 7 4 2 3 3 4 4 5 4 4 4 4 4 4 4 4 5 5 5 5 4 4 5 5 5 6 6 6 6 7 7 6 7
3 3 3 7 7 8 6 5 7 9 8 2 2 3 4 4 4 5 5 5 5 4 4 4 4 4 4 5 5 5 5 5 4 4 5 6 6 6 6 6 7 7 7 6
1 3 5 6 1 5 5 5 6 5 4 4 4 4 3 3 4 5 4 4 4 4 4 3 3 3 4 4 4 4 5 5 5 4 5 5 5 6 6 6 6 6 7 7
2 3 7 6 2 3 4 5 4 6 6 4 2 2 3 2 2 4 4 4 4 3 3 3 3 3 3 4 4 4 5 5 5 5 5 6 6 6 6 5 6 6 7 6
3 3 6 5 1 1 3 4 3 5 5 3 1 1 4 2 1 3 3 3 3 3 2 3 3 3 3 4 4 5 6 6 5 5 5 5 6 6 5 5 6 7 7 7
5 6 7 4 1 3 3 5 2 4 4 3 4 5 4 3 3 3 3 3 2 2 2 3 3 2 3 4 5 6 6 6 6 5 5 5 5 5 5 6 6 6 7 7
4 5 7 2 4 6 6 1 1 2 3 3 4 4 4 4 4 4 3 3 2 2 3 3 3 3 4 6 6 5 5 5 6 6 5 5 4 5 5 5 5 6 6 7
7 7 2 4 5 3 2 2 3 2 3 3 3 4 4 4 4 4 4 3 2 3 4 4 3 3 5 6 5 4 5 5 5 6 5 5 5 5 5 4 4 5 5 6
4 6 4 4 3 2 2 3 3 3 3 3 4 5 5 4 4 4 4 3 3 3 4 5 4 4 5 5 4 4 5 5 5 5 5 5 4 4 4 4 4 5 5 6
5 4 3 4 5 5 3 2 2 2 3 4 4 4 4 4 4 4 4 3 3 3 4 6 5 5 6 5 4 4 5 5 5 5 5 5 5 4 5 4 5 6 5 5
7 6 5 5 4 4 4 4 4 3 2 2 3 4 4 4 4 4 4 3 3 4 5 6 5 6 6 5 4 4 5 5 4 4 4 4 5 6 8 8 10 10 10 9
4 2 3 3 2 2 3 3 3 3 3 3 3 3 3 4 3 3 4 4 4 5 5 5 5 6 6 5 4 4 5 5 4 4 4 4 5 5 6 8 10 10 11 11
2 1 1 3 3 2 2 2 2 2 2 3 3 3 3 3 4 4 5 5 5 5 5 5 6 7 6 5 5 5 5 6 6 4 4 5 5 5 5 6 6 6 8 11
3 3 4 3 1 1 1 1 1 2 2 2 2 3 3 4 5 5 5 4 4 5 5 5 6 7 6 5 5 5 5 4 5 5 4 5 5 5 5 5 5 5 6 7
3 1 2 2 3 3 2 2 3 4 3 3 3 4 4 4 5 5 4 3 4 5 6 6 7 7 5 5 5 5 5 8 6 4 4 4 4 5 5 5 5 5 5 6
3 3 4 4 5 4 4 4 5 5 4 5 5 5 4 4 4 5 5 4 5 6 6 6 7 7 6 5 5 5 5 6 8 6 4 5 5 5 5 5 5 5 5 7
6 6 6 6 6 5 5 5 5 5 5 5 4 3 4 4 5 6 6 5 5 6 6 6 6 6 5 5 5 4 4 4 4 5 5 5 5 5 5 5 5 6 6 7
5 4 4 5 5 4 4 5 5 4 4 3 3 4 5 5 5 6 5 4 5 6 6 6 8 6 5 6 6 4 4 5 5 5 5 6 6 4 4 5 5 5 5 5
3 3 3 3 3 3 4 3 3 3 3 3 4 4 5 5 5 5 5 5 5 6 6 7 6 5 6 6 7 4 4 5 5 5 5 5 5 5 5 5 5 5 5 5
3 3 3 3 3 3 3 3 3 4 4 3 4 5 5 5 5 4 4 6 6 6 6 8 5 5 5 6 7 4 4 5 5 5 5 5 5 5 5 5 5 5 5 5
3 3 3 3 3 3 3 2 3 3 3 3 4 4 4 5 5 4 5 5 6 8 6 4 4 7 8 7 3 3 4 4 4 4 4 4 5 5 5 6 6 6 5 5
3 3 3 3 3 3 2 2 3 3 4 4 4 4 5 5 4 4 6 4 5 8 6 4 7 10 9 4 3 3 4 4 5 5 5 5 5 5 5 6 6 6 6 5
2 2 2 2 1 2 3 3 3 3 4 4 4 4 4 4 4 4 4 7 9 9 5 8 10 10 8 3 3 4 4 5 5 5 5 5 5 5 5 6 6 6 6 6
2 2 2 2 2 3 4 3 3 3 3 3 4 4 4 3 4 5 4 5 8 8 5 7 10 9 6 4 4 4 5 5 5 5 5 5 5 5 5 5 5 6 6 6
2 2 3 3 3 3 2 2 2 3 3 4 4 4 3 3 4 4 4 5 6 8 6 5 6 7 5 4 5 5 5 6 7 6 5 6 6 6 6 6 6 6 6 6
2 1 1 2 2 2 2 2 3 3 3 4 5 4 4 3 3 4 4 4 4 5 5 5 5 5 5 5 5 5 5 5 6 6 6 6 6 6 6 7 6 7 7 7
Wind_Direction
249 244 208 224 225 199 202 210 218 239 237 256 252 245 248 250 266 280 280 278 278 284 290 294 295 297 307 313 316 319 318 318 315 317 319 322 324 324 323 324 323 319 315 312
278 256 246 267 250 217 220 225 234 254 266 267 265 261 262 261 268 276 283 283 287 292 299 299 296 297 307 310 316 319 315 314 319 324 325 326 325 325 325 324 321 320 318 314
267 307 334 276 242 205 209 211 199 226 243 264 289 273 254 253 257 264 276 282 286 290 291 295 296 299 299 305 316 320 317 317 321 322 322 322 323 324 323 321 320 318 317 315
266 20 248 248 189 182 200 235 218 233 254 247 247 275 270 249 240 263 272 278 286 291 293 294 300 304 304 311 316 317 317 315 319 320 317 316 318 317 316 314 314 313 312 312
182 248 273 287 221 168 188 265 227 224 248 264 278 339 306 264 231 252 263 267 273 273 276 291 299 301 304 310 312 313 311 309 309 310 310 313 314 312 310 312 312 311 311 313
173 212 243 250 212 158 112 281 235 198 227 238 114 290 274 285 281 279 280 280 283 295 300 302 302 306 304 306 309 304 303 302 302 302 303 303 303 304 306 308 308 312 315 315
206 228 258 252 202 131 173 251 219 188 208 201 207 228 256 297 298 284 283 288 291 292 293 290 296 301 295 299 296 296 303 304 306 305 300 294 298 301 303 307 312 313 311 311
184 212 251 185 141 185 217 236 182 202 209 215 233 257 275 285 288 293 295 294 287 283 289 292 290 285 287 288 291 299 303 304 305 305 303 306 303 304 306 308 310 310 311 313
197 215 247 177 192 220 182 198 225 219 230 217 239 264 276 279 279 281 281 282 275 268 286 293 284 269 277 287 296 301 304 304 305 306 303 304 300 300 305 307 306 308 309 311
241 257 247 226 235 255 218 216 234 228 232 220 240 260 270 276 282 279 278 274 268 268 279 288 286 280 273 288 295 293 296 300 302 304 306 305 302 300 299 297 298 301 304 305
245 265 292 263 232 234 235 242 254 259 243 231 235 259 260 269 276 276 282 279 270 263 269 278 284 283 287 293 291 289 290 292 295 298 298 300 300 294 292 277 284 292 290 291
230 215 205 241 237 220 218 238 240 245 267 258 232 251 266 271 273 274 276 275 275 273 275 281 285 286 287 287 279 279 291 294 292 293 293 296 298 301 303 301 303 302 303 302
227 216 204 233 243 211 212 234 238 236 240 263 262 251 260 270 275 274 276 273 272 274 277 282 287 288 288 287 280 270 273 283 286 288 288 291 293 297 304 311 312 313 314 313
216 159 233 234 236 245 235 240 241 258 261 257 260 268 267 272 280 277 274 273 276 280 283 285 289 289 291 288 281 275 274 282 286 278 279 282 284 287 290 299 308 311 316 318
239 225 223 231 231 259 257 229 252 270 275 284 278 274 271 274 279 282 284 288 291 289 288 289 289 291 296 287 281 277 276 275 274 274 274 276 280 283 286 288 292 298 306 314
246 248 217 218 235 245 250 236 240 256 263 267 274 275 273 272 278 285 288 285 282 285 287 288 287 291 295 286 284 282 278 284 288 281 279 282 283 283 284 285 289 293 298 303
184 223 230 242 244 247 241 236 236 244 252 259 266 275 279 283 287 288 289 286 274 276 280 280 285 293 293 283 276 279 282 287 289 288 281 280 280 279 281 283 286 290 292 299
216 220 216 217 221 231 244 244 242 245 249 256 265 269 269 269 274 283 289 296 297 293 284 278 284 290 286 280 274 273 277 279 279 277 277 278 279 277 276 277 281 284 289 296
228 227 224 221 217 217 229 238 244 247 253 254 253 258 262 263 268 278 285 290 291 294 294 290 300 303 290 285 290 272 275 280 281 280 280 288 293 286 281 283 284 286 290 293
233 228 225 228 219 219 233 242 245 253 255 249 255 264 271 273 272 276 278 274 266 268 282 292 295 290 286 287 295 280 275 276 279 283 284 281 283 284 283 284 284 285 287 287
233 231 231 231 238 239 235 234 235 252 261 251 250 260 268 278 276 272 277 286 286 281 286 296 301 292 290 293 293 284 278 279 280 281 285 286 287 288 288 288 288 289 288 288
228 226 231 233 238 253 254 242 241 250 260 263 263 265 272 280 283 278 262 263 284 299 302 290 292 296 304 305 302 295 289 288 287 285 284 285 286 288 289 290 289 289 289 287
229 225 227 233 238 253 269 255 245 246 253 259 261 262 265 270 272 275 289 284 286 299 307 293 301 308 314 322 312 298 293 290 288 286 284 284 284 284 285 287 287 287 288 287
235 234 239 242 225 240 263 268 264 261 260 264 262 260 262 276 282 266 266 295 306 307 303 303 311 315 321 324 308 298 293 290 287 284 283 282 282 282 282 283 284 285 284 284
246 245 235 225 232 246 256 268 275 274 273 275 275 271 263 256 266 284 286 289 301 310 308 309 313 316 317 303 297 293 291 289 289 290 288 288 287 286 285 283 284 285 286 286
251 248 244 243 244 252 255 256 265 274 278 286 290 285 280 273 268 275 282 286 290 305 308 302 303 305 302 297 293 291 289 293 297 296 292 290 289 287 287 287 287 285 285 284
279 266 265 276 271 256 251 253 262 270 270 271 282 287 286 285 283 283 285 290 294 296 296 298 299 298 298 296 294 292 290 290 289 289 290 288 287 285 286 285 285 284 283 283
Height
1517 1516 1517 1516 1517 1519 1520 1517 1517 1511 1512 1505 1504 1504 1504 1504 1503 1502 1501 1500 1499 1497 1496 1494 1493 1491 1489 1488 1486 1484 1482 1480 1478 1477 1475 1473 1471 1470 1468 1466 1465 1464 1462 1461
1517 1514 1515 1514 1512 1514 1515 1515 1514 1511 1508 1501 1501 1502 1502 1501 1500 1499 1498 1497 1496 1495 1493 1492 1490 1488 1486 1484 1483 1481 1479 1477 1476 1474 1472 1470 1468 1467 1465 1463 1461 1460 1458 1457
1517 1516 1513 1511 1506 1509 1510 1509 1509 1507 1503 1500 1500 1499 1499 1498 1497 1497 1496 1495 1494 1492 1490 1489 1487 1486 1484 1482 1480 1478 1476 1475 1473 1471 1469 1467 1466 1464 1462 1460 1458 1456 1454 1453
1519 1519 1515 1501 1502 1502 1504 1504 1503 1501 1499 1498 1498 1497 1496 1496 1495 1494 1493 1492 1491 1489 1488 1486 1484 1483 1481 1479 1477 1475 1473 1472 1470 1468 1466 1464 1462 1461 1459 1456 1454 1452 1451 1449
1520 1519 1510 1502 1501 1502 1503 1501 1498 1498 1497 1496 1496 1495 1494 1493 1493 1492 1491 1490 1488 1487 1485 1483 1481 1480 1478 1476 1474 1472 1470 1469 1467 1465 1463 1461 1459 1457 1455 1453 1451 1449 1447 1446
1518 1515 1509 1497 1499 1499 1502 1500 1494 1494 1494 1494 1495 1497 1493 1491 1490 1489 1488 1487 1485 1483 1482 1480 1478 1477 1475 1473 1471 1469 1467 1465 1464 1462 1460 1458 1456 1454 1452 1450 1448 1446 1444 1442
1514 1513 1503 1499 1498 1500 1502 1495 1492 1491 1491 1492 1492 1492 1490 1489 1487 1486 1485 1484 1482 1480 1479 1477 1475 1474 1472 1470 1468 1466 1464 1462 1461 1459 1457 1455 1453 1451 1449 1447 1445 1443 1441 1439
1513 1511 1502 1496 1497 1497 1493 1490 1489 1489 1489 1489 1488 1488 1487 1486 1484 1483 1482 1480 1479 1477 1476 1474 1473 1471 1468 1467 1465 1463 1461 1460 1458 1456 1454 1452 1450 1448 1446 1444 1441 1439 1437 1435
1502 1497 1492 1490 1489 1489 1488 1488 1487 1487 1487 1486 1485 1484 1484 1482 1481 1480 1479 1477 1476 1474 1473 1471 1470 1468 1465 1464 1462 1460 1458 1456 1455 1453 1451 1449 1447 1444 1442 1440 1438 1436 1434 1432
1498 1492 1489 1488 1487 1487 1486 1486 1485 1485 1485 1484 1482 1481 1481 1480 1478 1477 1476 1474 1473 1471 1469 1468 1467 1465 1463 1461 1459 1457 1455 1453 1451 1449 1447 1445 1443 1441 1439 1437 1435 1433 1431 1429
1493 1488 1487 1485 1484 1484 1484 1483 1483 1482 1482 1481 1480 1479 1478 1476 1475 1474 1473 1471 1470 1468 1466 1465 1463 1462 1460 1458 1456 1454 1452 1450 1448 1446 1443 1441 1440 1438 1436 1434 1433 1431 1428 1427
1484 1481 1482 1481 1480 1481 1480 1480 1480 1479 1478 1478 1477 1476 1475 1473 1472 1471 1469 1468 1467 1465 1463 1462 1460 1458 1457 1455 1452 1450 1448 1446 1444 1442 1440 1438 1436 1434 1432 1431 1429 1427 1426 1424
1478 1477 1478 1478 1478 1478 1477 1477 1477 1477 1476 1475 1474 1473 1472 1470 1469 1468 1466 1465 1463 1462 1460 1458 1456 1455 1453 1451 1449 1447 1444 1442 1440 1438 1436 1434 1432 1430 1428 1427 1425 1423 1422 1420
1475 1476 1475 1475 1475 1475 1475 1474 1474 1473 1473 1472 1471 1470 1469 1467 1466 1464 1463 1462 1460 1458 1457 1455 1453 1451 1449 1447 1445 1443 1441 1439 1436 1434 1432 1431 1429 1427 1425 1422 1420 1418 1418 1416
1473 1473 1473 1472 1472 1472 1472 1471 1471 1470 1469 1469 1468 1467 1465 1464 1462 1461 1460 1458 1456 1455 1453 1451 1449 1448 1446 1443 1441 1439 1437 1435 1433 1431 1429 1427 1425 1423 1421 1419 1417 1415 1413 1412
1470 1470 1470 1469 1469 1469 1468 1468 1467 1467 1466 1466 1465 1463 1462 1461 1459 1458 1456 1455 1453 1451 1449 1447 1445 1444 1442 1439 1437 1435 1433 1431 1429 1427 1425 1423 1421 1419 1417 1416 1414 1412 1410 1408
1466 1466 1465 1465 1465 1465 1465 1465 1465 1464 1463 1462 1461 1460 1459 1457 1456 1454 1453 1451 1449 1448 1446 1444 1442 1440 1438 1436 1433 1431 1429 1427 1425 1423 1421 1420 1418 1416 1414 1412 1410 1408 1406 1405
1463 1463 1463 1462 1462 1462 1462 1462 1461 1461 1460 1459 1458 1457 1455 1454 1452 1451 1449 1447 1446 1444 1443 1440 1438 1436 1434 1432 1430 1428 1426 1423 1421 1420 1418 1416 1414 1412 1410 1408 1406 1405 1403 1401
1459 1459 1460 1460 1460 1459 1459 1459 1458 1458 1457 1455 1454 1453 1451 1450 1449 1447 1446 1444 1442 1440 1439 1437 1435 1433 1431 1429 1426 1424 1422 1420 1418 1416 1414 1412 1410 1408 1406 1404 1403 1401 1399 1397
1456 1457 1457 1457 1457 1456 1456 1455 1455 1454 1453 1452 1450 1449 1448 1447 1445 1444 1442 1440 1439 1437 1435 1433 1431 1429 1427 1425 1423 1421 1419 1416 1414 1412 1410 1408 1406 1404 1402 1400 1398 1397 1395 1393
1453 1454 1453 1453 1453 1453 1452 1452 1451 1450 1449 1448 1447 1445 1444 1443 1442 1440 1438 1436 1435 1433 1431 1430 1428 1425 1423 1421 1419 1417 1415 1413 1411 1408 1406 1404 1402 1400 1398 1396 1394 1393 1391 1389
1450 1450 1450 1450 1450 1449 1449 1448 1448 1447 1446 1444 1443 1442 1441 1439 1438 1436 1435 1433 1431 1430 1428 1426 1424 1422 1420 1418 1415 1413 1411 1409 1407 1405 1402 1400 1398 1396 1394 1392 1390 1388 1387 1385
1448 1447 1447 1447 1446 1446 1445 1445 1444 1443 1442 1441 1439 1438 1437 1436 1434 1432 1430 1429 1428 1426 1424 1422 1420 1418 1416 1413 1411 1409 1407 1404 1402 1400 1398 1396 1394 1392 1390 1388 1386 1384 1382 1380
1444 1444 1444 1443 1443 1442 1441 1441 1440 1439 1438 1437 1436 1435 1433 1432 1430 1429 1427 1425 1424 1422 1419 1418 1416 1414 1411 1409 1407 1404 1402 1400 1398 1396 1394 1392 1390 1388 1386 1384 1382 1380 1378 1376
1441 1440 1440 1439 1439 1438 1438 1437 1436 1435 1434 1433 1432 1431 1430 1428 1426 1424 1423 1421 1419 1417 1415 1413 1411 1409 1407 1404 1402 1400 1398 1396 1394 1392 1389 1387 1385 1383 1381 1380 1378 1376 1374 1372
1437 1437 1436 1436 1435 1435 1434 1433 1432 1431 1430 1429 1428 1427 1425 1424 1422 1421 1419 1417 1415 1413 1411 1409 1407 1405 1402 1400 1398 1396 1393 1391 1389 1387 1385 1383 1381 1379 1377 1375 1373 1371 1369 1367
1434 1434 1433 1432 1432 1431 1431 1430 1429 1428 1426 1425 1423 1422 1421 1420 1418 1416 1415 1413 1411 1409 1407 1404 1402 1400 1398 1395 1393 1391 1389 1387 1385 1383 1381 1378 1376 1374 1372 1370 1368 1366 1365 1363